This demonstration page uses our WeatherBlox Daily Observations layout. Learn more.

39.92423, -83.80882

Hourly Observations for June 12, 2017

Temp ( °F °C ) Dew Point ( °F °C ) Humidity (%) Winds ( mph kmh ) Pressure ( in mb ) Visibility ( mi km ) Precip ( " mm )
12:58 am 00:58 Clear 71 21.9 61 16.2 70 70 SSW 5 7 30.04 1017 10 16.0934 0 0
1:58 am 01:58 Clear 72 22.3 61 16.3 69 69 WSW 3 6 30.05 1018 10 16.0934 0 0
2:58 am 02:58 Clear 67 19.4 62 16.7 84 84 Calm 30.08 1019 10 16.0934 0 0
3:58 am 03:58 Clear 68 20.2 61 16.3 78 78 Calm 30.08 1019 10 16.0934 0 0
4:48 am 04:48 Mostly Cloudy with Haze 66 19 63 17 88 88 SSE 3 6 30.08 1019 4 6.43736 0 0
4:58 am 04:58 Mostly Cloudy 66 19.1 62 16.9 87 87 Calm 30.08 1019 7 11.26538 0 0
5:08 am 05:08 Mostly Cloudy 64 18 63 17 94 94 Calm 30.09 1019 10 16.0934 0 0
5:18 am 05:18 Mostly Cloudy 64 18 63 17 94 94 Calm 30.09 1019 9 14.48406 0 0
5:28 am 05:28 Partly Cloudy with Mist and Fog 64 18 63 17 94 94 Calm 30.09 1019 6 9.65604 0 0
5:58 am 05:58 Clear 67 19.6 63 17.2 86 86 SSE 5 7 30.09 1019 10 16.0934 0 0
6:58 am 06:58 Mostly Sunny 67 19.3 64 17.5 89 89 SSE 3 6 30.1 1019 10 16.0934 0 0
7:58 am 07:58 Sunny 73 22.9 65 18.2 75 75 S 5 7 30.11 1020 10 16.0934 0 0
8:58 am 08:58 Sunny 78 25.3 66 19.1 69 69 SSW 7 11 30.11 1020 10 16.0934 0 0
9:58 am 09:58 Sunny 81 27.1 67 19.6 64 64 SW 9 15 30.1 1019 10 16.0934 0 0
10:58 am 10:58 Sunny 84 29.1 67 19.6 57 57 SW 13 20 30.09 1019 10 16.0934 0 0
11:58 am 11:58 Mostly Sunny 86 30 65 18.5 50 50 SW 13 20 30.09 1019 10 16.0934 0 0
12:58 pm 12:58 Partly Cloudy 88 30.9 62 16.6 42 42 SSW 13 20 30.08 1019 10 16.0934 0 0
1:58 pm 13:58 Sunny 89 31.7 61 16.3 40 40 WSW 14 22 30.06 1018 10 16.0934 0 0
3:58 pm 15:58 Mostly Sunny 91 32.6 64 17.9 42 42 SW 12 19 29.97 1015 10 16.0934 0 0
4:58 pm 16:58 Mostly Sunny 90 32.4 65 18.1 43 43 SSW 12 19 29.94 1014 10 16.0934 0 0.0254
5:58 pm 17:58 Partly Cloudy with Light Drizzle 89 31.7 64 17.7 43 43 SW 10 17 29.94 1014 10 16.0934 0 0.0254
6:58 pm 18:58 Sunny 90 32.1 65 18.2 44 44 SW 13 20 29.91 1013 10 16.0934 0 0.0254
7:58 pm 19:58 Sunny 87 30.6 65 18.2 47 47 SW 8 13 29.91 1013 10 16.0934 0 0.0254
8:58 pm 20:58 Sunny 83 28.1 66 18.9 57 57 SW 7 11 29.97 1015 10 16.0934 0 0.0254
9:58 pm 21:58 Clear 79 26.2 67 19.2 65 65 SW 7 11 29.99 1016 10 16.0934 0 0.0254
10:58 pm 22:58 Clear 76 24.3 66 19.1 73 73 SW 6 9 30.01 1016 8 12.87472 0 0.0254
11:58 pm 23:58 Mostly Clear 75 23.8 66 19 75 75 WSW 5 7 30.03 1017 9 14.48406 0 0

Powered by AerisWeather